This is the latest recevied weather packets stored in our database for station/object VE3TEJ. If no packets are shown the sender has not sent any weather packets the latest 10 day(s).
| Time | Temp. | Humidity | Pressure | Rain* | Wind** | Luminosity | Snow |
|---|---|---|---|---|---|---|---|
| 1788021155 | 26.11° C | 59% | 1027.6 hPa | 0 mm | - | - | - |
| 1788020857 | 26.11° C | 60% | 1027.7 hPa | 0 mm | - | - | - |
| 1788020557 | 26.11° C | 60% | 1027.8 hPa | 0 mm | - | - | - |
| 1788020256 | 26.11° C | 58% | 1027.8 hPa | 0 mm | - | - | - |
| 1788020206 | 26.11° C | 57% | 1027.9 hPa | 0 mm | - | - | - |
| 1788019955 | 26.11° C | 62% | 1027.8 hPa | 0 mm | - | - | - |
| 1788019657 | 26.11° C | 61% | 1028 hPa | 0 mm | - | - | - |
| 1788019367 | 25.56° C | 61% | 1027.8 hPa | 0 mm | - | - | - |
| 1788019307 | 25.56° C | 60% | 1027.9 hPa | 0 mm | - | - | - |
| 1788019055 | 25° C | 61% | 1027.8 hPa | 0 mm | - | - | - |
| 1788018755 | 25° C | 63% | 1027.8 hPa | 0 mm | - | - | - |
| 1788018457 | 25° C | 63% | 1027.8 hPa | 0 mm | - | - | - |
| 1788018409 | 25° C | 63% | 1027.7 hPa | 0 mm | - | - | - |
| 1788018156 | 25° C | 60% | 1027.8 hPa | 0 mm | - | - | - |
| 1788017856 | 25.56° C | 61% | 1027.8 hPa | 0 mm | - | - | - |
| 1788017556 | 25.56° C | 57% | 1027.8 hPa | 0 mm | - | - | - |
| 1788017507 | 25.56° C | 58% | 1028.1 hPa | 0 mm | - | - | - |
| 1788017255 | 25.56° C | 58% | 1028.1 hPa | 0 mm | - | - | - |
| 1788016955 | 25.56° C | 58% | 1028 hPa | 0 mm | - | - | - |
| 1788016657 | 25° C | 59% | 1027.8 hPa | 0 mm | - | - | - |
| 1788016609 | 25° C | 59% | 1028 hPa | 0 mm | - | - | - |
| 1788016356 | 25° C | 61% | 1028.1 hPa | 0 mm | - | - | - |
| 1788016056 | 25° C | 60% | 1028 hPa | 0 mm | - | - | - |
| 1788015756 | 24.44° C | 62% | 1028 hPa | 0 mm | - | - | - |
| 1788015708 | 24.44° C | 62% | 1028 hPa | 0 mm | - | - | - |
* Rain latest hour (hover to see other rain measurements)
** Current wind speed in m/s (hover to see current wind gust speed)